Regional Weather Roundup
Issued by NWS

Home | Current Version | Previous Version | Text Only | Print | Product List | Glossary On
Versions: 1 2 3 4 5 6 7 8 9 10 11 12 13 14 15 16 17 18 19 20 21 22 23 24 25 26 27 28 29 30 31 32 33 34 35 36 37 38 39 40 41 42 43 44 45 46 47 48 49 50
000
ASUS45 KABQ 222210
RWRNM
WEATHER ROUNDUP FOR NEW MEXICO
NATIONAL WEATHER SERVICE ALBUQUERQUE NM
400 PM MDT FRI AUG 22 2014

NOTE: "FAIR" MEANS FEW OR NO CLOUDS BELOW 12,000 FEET AGL WITH NO
       SIGNIFICANT WEATHER OR OBSTRUCTIONS TO VISION.

      THIS PRODUCT IS RELEASED AS TWO VERSIONS.  ONE VERSION NEAR
      THE TOP OF THE HOUR CONTAINING PRELIMINARY DATA FROM ALBUQUERQUE
      AND OTHER STATIONS.  A FINAL VERSION WITH ADDITIONAL DATA IS
      ISSUED ABOUT 10 MINUTES AFTER THE HOUR.

NMZ501-503-504-510>518-222300-
NORTHWEST PLATEAU/NORTHCENTRAL MOUNTAINS

CITY           SKY/WX    TMP DP  RH WIND       PRES   REMARKS
FARMINGTON     LGT RAIN  59  55  87 W10       30.16S
LOS ALAMOS     CLOUDY    58  53  85 NE3       30.28F
SANTA FE       CLOUDY    63  53  70 N6        30.22F
TAOS           CLOUDY    55  48  76 CALM      30.28F
ANGEL FIRE     CLOUDY    58  50  75 W5        30.30F

$$
NMZ402-403-502-505>509-222300-
WESTCENTRAL MOUNTAINS/SOUTHWEST MOUNTAINS

CITY           SKY/WX    TMP DP  RH WIND       PRES   REMARKS
GALLUP         PTSUNNY   74  43  32 W13G18    30.17F
SILVER CITY    SUNNY     81  46  30 NW9G18    30.15F

$$
NMZ407-409-411-412-222300-
SOUTHERN DESERTS

CITY           SKY/WX    TMP DP  RH WIND       PRES   REMARKS
LORDSBURG      FAIR      84  52  32 NW6       30.06F
DEMING         MOSUNNY   83  55  38 MISG      30.06F
LAS CRUCES     CLOUDY    76  61  59 SE7       30.11F
HOLLOMAN AFB   CLOUDY    75  61  60 SE8       30.08F
ALAMOGORDO     CLOUDY    73  63  68 S7        30.11F
T OR C         LGT RAIN  79  58  48 S16G23    30.08F

$$
NMZ519>523-222300-
CENTRAL VALLEYS/CENTRAL HIGHLANDS

CITY           SKY/WX    TMP DP  RH WIND       PRES   REMARKS
ALBUQUERQUE    PTSUNNY   69  56  62 N3        30.17F
DOUBLE EAGLE   PTSUNNY   64  57  77 NE7       30.20F
MORIARTY ARPT  MOCLDY    69  52  55 W7        30.22F
CLINES CORNERS PTSUNNY   64  52  64 W13       30.24F
BELEN          CLOUDY    69  58  69 NE6       30.15F
SOCORRO        CLOUDY    67  60  78 NW6       30.13F

$$
NMZ524>526-539-540-222300-
SOUTHCENTRAL MOUNTAINS

CITY           SKY/WX    TMP DP  RH WIND       PRES   REMARKS
RUIDOSO        LGT RAIN  63  57  82 W5        30.26F

$$
NMZ527>531-222300-
NORTHEAST HIGHLANDS/NORTHEAST PLAINS

CITY           SKY/WX    TMP DP  RH WIND       PRES   REMARKS
LAS VEGAS      CLOUDY    69  50  50 SW18      30.21S
RATON          PTSUNNY   73  56  54 N3        30.13F
CLAYTON        MOSUNNY   91  47  21 SW20G29   30.01F

$$
NMZ532>537-222300-
EASTCENTRAL PLAINS

CITY           SKY/WX    TMP DP  RH WIND       PRES   REMARKS
TUCUMCARI      MOSUNNY   95  50  21 SW21G29   29.97F
CANNON AFB     LGT RAIN  90  57  33 SW16G41   30.03F
CLOVIS AIRPORT   N/A     84  57  39 SW12G31   30.04F

$$
NMZ028-029-538-222300-
SOUTHEAST PLAINS

CITY           SKY/WX    TMP DP  RH WIND       PRES   REMARKS
ROSWELL        PTSUNNY   88  56  33 SW15G26   29.99S
ARTESIA        PTSUNNY   90  55  31 SW18G28   29.98F
CARLSBAD       MOSUNNY   95  54  25 SW8       29.95F
HOBBS          PTSUNNY   91  54  27 SE14G23   30.01F


$$


USA.gov is the U.S. government's official web portal to all federal, state and local government web resources and services.